Time,TemperatureF,DewpointF,PressureIn,WindDirection,WindDirectionDegrees,WindSpeedMPH,WindSpeedGustMPH,Humidity,HourlyPrecipIn,Conditions,Clouds,dailyrainin,SoftwareType,DateUTC
2013-09-19 00:03:00,77.2,73.4,29.92,SSW,194,0.0,0.0,88,0.00,RA,,0.00,WeatherDisplay:10.37,2013-09-19 05:03:00,
2013-09-19 00:08:00,77.3,73.5,29.91,SSW,194,0.0,0.0,88,0.00,RA,,0.00,WeatherDisplay:10.37,2013-09-19 05:08:00,
2013-09-19 00:13:00,77.4,73.6,29.91,SE,134,0.0,0.0,88,0.00,CLR,,0.00,WeatherDisplay:10.37,2013-09-19 05:13:00,
2013-09-19 00:18:00,77.4,73.9,29.92,SE,134,0.0,0.0,89,0.00,CLR,,0.00,WeatherDisplay:10.37,2013-09-19 05:18:00,
2013-09-19 00:23:00,77.2,73.7,29.91,SE,134,0.0,0.0,89,0.00,CLR,,0.00,WeatherDisplay:10.37,2013-09-19 05:23:00,
2013-09-19 00:28:00,77.1,73.6,29.91,SE,129,0.0,0.0,89,0.00,CLR,,0.00,WeatherDisplay:10.37,2013-09-19 05:28:00,
2013-09-19 00:33:00,77.1,73.9,29.91,SE,129,0.0,0.0,90,0.00,CLR,,0.00,WeatherDisplay:10.37,2013-09-19 05:33:00,
2013-09-19 00:38:00,76.9,73.7,29.91,SE,129,0.0,0.0,90,0.00,CLR,,0.00,WeatherDisplay:10.37,2013-09-19 05:38:00,
2013-09-19 00:43:00,76.7,73.5,29.91,SE,129,0.0,0.0,90,0.00,CLR,,0.00,WeatherDisplay:10.37,2013-09-19 05:43:00,
2013-09-19 00:48:00,76.8,73.6,29.91,ESE,121,0.0,0.0,90,0.00,CLR,,0.00,WeatherDisplay:10.37,2013-09-19 05:48:00,
2013-09-19 00:53:00,76.8,73.6,29.91,ESE,121,0.0,0.0,90,0.00,CLR,,0.00,WeatherDisplay:10.37,2013-09-19 05:53:00,
2013-09-19 00:58:00,76.8,73.6,29.91,ESE,121,0.0,0.0,90,0.00,CLR,,0.00,WeatherDisplay:10.37,2013-09-19 05:58:00,
2013-09-19 01:03:00,76.7,73.5,29.91,ESE,121,0.0,0.0,90,0.00,CLR,,0.00,WeatherDisplay:10.37,2013-09-19 06:03:00,
2013-09-19 01:08:00,76.6,73.4,29.91,ESE,121,0.0,0.0,90,0.00,CLR,,0.00,WeatherDisplay:10.37,2013-09-19 06:08:00,
2013-09-19 01:13:00,76.6,73.4,29.91,ESE,121,0.0,0.0,90,0.00,CLR,,0.00,WeatherDisplay:10.37,2013-09-19 06:13:00,
2013-09-19 01:18:00,76.6,73.4,29.90,ESE,121,0.0,0.0,90,0.00,CLR,,0.00,WeatherDisplay:10.37,2013-09-19 06:18:00,
2013-09-19 01:23:00,76.8,73.6,29.90,ESE,113,0.0,0.0,90,0.00,CLR,,0.00,WeatherDisplay:10.37,2013-09-19 06:23:00,
2013-09-19 01:28:00,76.8,73.6,29.90,NE,37,0.0,0.0,90,0.00,CLR,,0.00,WeatherDisplay:10.37,2013-09-19 06:28:00,
2013-09-19 01:33:00,76.8,73.6,29.90,ENE,64,0.0,0.0,90,0.00,CLR,,0.00,WeatherDisplay:10.37,2013-09-19 06:33:00,
2013-09-19 01:38:00,76.7,73.9,29.90,ENE,57,0.0,0.0,91,0.00,CLR,,0.00,WeatherDisplay:10.37,2013-09-19 06:38:00,
2013-09-19 01:43:00,76.7,73.9,29.90,ENE,74,0.0,0.0,91,0.00,CLR,,0.00,WeatherDisplay:10.37,2013-09-19 06:43:00,
2013-09-19 01:48:00,76.7,73.9,29.90,ENE,72,0.0,0.0,91,0.00,CLR,,0.00,WeatherDisplay:10.37,2013-09-19 06:48:00,
2013-09-19 01:53:00,76.7,73.9,29.90,ENE,72,0.0,0.0,91,0.00,CLR,,0.00,WeatherDisplay:10.37,2013-09-19 06:53:00,
2013-09-19 01:58:00,76.6,73.8,29.90,ENE,72,0.0,0.0,91,0.00,CLR,,0.00,WeatherDisplay:10.37,2013-09-19 06:58:00,
2013-09-19 02:03:00,76.6,73.8,29.90,NE,39,0.0,0.0,91,0.00,CLR,,0.00,WeatherDisplay:10.37,2013-09-19 07:03:00,
2013-09-19 02:08:00,76.6,74.1,29.90,NE,43,1.1,1.1,92,0.00,CLR,,0.00,WeatherDisplay:10.37,2013-09-19 07:08:00,
2013-09-19 02:13:00,76.5,74.0,29.90,NE,51,0.0,0.0,92,0.00,CLR,,0.00,WeatherDisplay:10.37,2013-09-19 07:13:00,
2013-09-19 02:18:00,76.5,74.0,29.89,ENE,72,0.0,0.0,92,0.00,CLR,,0.00,WeatherDisplay:10.37,2013-09-19 07:18:00,
2013-09-19 02:23:00,76.4,73.9,29.89,ENE,75,0.0,0.0,92,0.00,CLR,,0.00,WeatherDisplay:10.37,2013-09-19 07:23:00,
2013-09-19 02:28:00,76.3,73.8,29.89,East,86,0.0,0.0,92,0.00,CLR,,0.00,WeatherDisplay:10.37,2013-09-19 07:28:00,
2013-09-19 02:33:00,76.2,74.0,29.89,East,85,0.0,0.0,93,0.00,CLR,,0.00,WeatherDisplay:10.37,2013-09-19 07:33:00,
2013-09-19 02:38:00,76.1,73.9,29.89,East,84,0.0,0.0,93,0.00,CLR,,0.00,WeatherDisplay:10.37,2013-09-19 07:38:00,
2013-09-19 02:43:00,76.0,73.8,29.89,East,86,0.0,0.0,93,0.00,CLR,,0.00,WeatherDisplay:10.37,2013-09-19 07:43:00,
2013-09-19 02:48:00,75.9,73.7,29.89,East,82,0.0,0.0,93,0.00,CLR,,0.00,WeatherDisplay:10.37,2013-09-19 07:48:00,
2013-09-19 02:53:00,75.8,73.6,29.89,East,83,0.0,0.0,93,0.00,CLR,,0.00,WeatherDisplay:10.37,2013-09-19 07:53:00,
2013-09-19 02:58:00,75.7,73.8,29.89,East,82,0.0,0.0,94,0.00,CLR,,0.00,WeatherDisplay:10.37,2013-09-19 07:58:00,
2013-09-19 03:03:00,75.7,73.8,29.89,East,82,0.0,0.0,94,0.00,CLR,,0.00,WeatherDisplay:10.37,2013-09-19 08:03:00,
2013-09-19 03:08:00,75.5,73.7,29.88,East,83,0.0,0.0,94,0.00,CLR,,0.00,WeatherDisplay:10.37,2013-09-19 08:08:00,
2013-09-19 03:13:00,75.4,73.6,29.88,East,82,0.0,0.0,94,0.00,CLR,,0.00,WeatherDisplay:10.37,2013-09-19 08:13:00,
2013-09-19 03:18:00,75.4,73.6,29.89,East,82,0.0,0.0,94,0.00,CLR,,0.00,WeatherDisplay:10.37,2013-09-19 08:18:00,
2013-09-19 03:23:00,75.4,73.6,29.88,NNE,32,0.0,0.0,94,0.00,CLR,,0.00,WeatherDisplay:10.37,2013-09-19 08:23:00,
2013-09-19 03:28:00,75.6,73.8,29.89,NE,39,0.0,0.0,94,0.00,CLR,,0.00,WeatherDisplay:10.37,2013-09-19 08:28:00,
2013-09-19 03:33:00,75.8,73.9,29.88,East,83,2.3,2.3,94,0.00,CLR,,0.00,WeatherDisplay:10.37,2013-09-19 08:33:00,
2013-09-19 03:38:00,75.9,73.7,29.88,ENE,75,1.1,1.1,93,0.00,CLR,,0.00,WeatherDisplay:10.37,2013-09-19 08:38:00,
2013-09-19 03:43:00,75.9,73.7,29.88,East,89,0.0,0.0,93,0.00,CLR,,0.00,WeatherDisplay:10.37,2013-09-19 08:43:00,
2013-09-19 03:48:00,75.8,73.6,29.88,East,92,0.0,0.0,93,0.00,CLR,,0.00,WeatherDisplay:10.37,2013-09-19 08:48:00,
2013-09-19 03:53:00,75.8,73.9,29.88,East,91,0.0,0.0,94,0.00,CLR,,0.00,WeatherDisplay:10.37,2013-09-19 08:53:00,
2013-09-19 03:58:00,75.8,73.9,29.88,East,92,0.0,0.0,94,0.00,CLR,,0.00,WeatherDisplay:10.37,2013-09-19 08:58:00,
2013-09-19 04:03:00,75.8,73.9,29.88,East,90,0.0,0.0,94,0.00,CLR,,0.00,WeatherDisplay:10.37,2013-09-19 09:03:00,
2013-09-19 04:08:00,75.8,73.9,29.88,East,80,0.0,0.0,94,0.00,CLR,,0.00,WeatherDisplay:10.37,2013-09-19 09:08:00,
2013-09-19 04:13:00,75.8,73.9,29.87,East,91,0.0,0.0,94,0.00,CLR,,0.00,WeatherDisplay:10.37,2013-09-19 09:13:00,
2013-09-19 04:18:00,75.8,73.9,29.87,ENE,76,0.0,0.0,94,0.00,CLR,,0.00,WeatherDisplay:10.37,2013-09-19 09:18:00,
2013-09-19 04:23:00,75.8,73.9,29.87,ENE,72,0.0,0.0,94,0.00,CLR,,0.00,WeatherDisplay:10.37,2013-09-19 09:23:00,
2013-09-19 04:28:00,75.8,73.9,29.87,ENE,78,0.0,0.0,94,0.00,CLR,,0.00,WeatherDisplay:10.37,2013-09-19 09:28:00,
2013-09-19 04:33:00,75.7,73.8,29.87,ENE,71,0.0,0.1,94,0.00,CLR,,0.00,WeatherDisplay:10.37,2013-09-19 09:33:00,
2013-09-19 04:38:00,75.7,73.8,29.87,East,88,2.3,2.3,94,0.00,CLR,,0.00,WeatherDisplay:10.37,2013-09-19 09:38:00,
2013-09-19 04:43:00,75.6,73.8,29.87,ENE,77,3.5,3.5,94,0.00,CLR,,0.00,WeatherDisplay:10.37,2013-09-19 09:43:00,
2013-09-19 04:48:00,75.6,73.8,29.88,East,83,0.0,0.0,94,0.00,CLR,,0.00,WeatherDisplay:10.37,2013-09-19 09:48:00,
2013-09-19 04:53:00,75.5,73.7,29.88,East,92,2.3,2.3,94,0.00,CLR,,0.00,WeatherDisplay:10.37,2013-09-19 09:53:00,
2013-09-19 04:58:00,75.5,73.7,29.88,East,81,0.0,0.0,94,0.00,CLR,,0.00,WeatherDisplay:10.37,2013-09-19 09:58:00,
2013-09-19 05:03:00,75.4,73.6,29.88,ENE,75,0.0,0.0,94,0.00,CLR,,0.00,WeatherDisplay:10.37,2013-09-19 10:03:00,
2013-09-19 05:08:00,75.4,73.6,29.88,East,89,0.0,0.0,94,0.00,CLR,,0.00,WeatherDisplay:10.37,2013-09-19 10:08:00,
2013-09-19 05:13:00,75.4,73.6,29.88,East,91,0.0,0.0,94,0.00,CLR,,0.00,WeatherDisplay:10.37,2013-09-19 10:13:00,
2013-09-19 05:18:00,75.4,73.6,29.87,East,90,0.0,0.0,94,0.00,CLR,,0.00,WeatherDisplay:10.37,2013-09-19 10:18:00,
2013-09-19 05:23:00,75.4,73.6,29.87,East,82,0.0,0.0,94,0.00,CLR,,0.00,WeatherDisplay:10.37,2013-09-19 10:23:00,
2013-09-19 05:28:00,75.4,73.6,29.87,ENE,78,0.0,0.0,94,0.00,CLR,,0.00,WeatherDisplay:10.37,2013-09-19 10:28:00,
2013-09-19 05:33:00,75.3,73.8,29.87,East,79,0.0,0.0,95,0.00,CLR,,0.00,WeatherDisplay:10.37,2013-09-19 10:33:00,
2013-09-19 05:38:00,75.3,73.8,29.87,ENE,67,1.1,0.0,95,0.00,CLR,,0.00,WeatherDisplay:10.37,2013-09-19 10:38:00,
2013-09-19 05:43:00,75.3,73.8,29.87,NE,37,1.1,1.1,95,0.00,CLR,,0.00,WeatherDisplay:10.37,2013-09-19 10:43:00,
2013-09-19 05:48:00,75.4,73.9,29.87,NE,43,2.3,2.3,95,0.00,CLR,,0.00,WeatherDisplay:10.37,2013-09-19 10:48:00,
2013-09-19 05:53:00,75.4,73.9,29.87,ENE,65,2.3,2.3,95,0.00,CLR,,0.00,WeatherDisplay:10.37,2013-09-19 10:53:00,
2013-09-19 05:58:00,75.4,73.9,29.87,NE,54,1.1,1.1,95,0.00,CLR,,0.00,WeatherDisplay:10.37,2013-09-19 10:58:00,
2013-09-19 06:03:00,75.4,73.9,29.87,ENE,74,0.0,0.0,95,0.00,CLR,,0.00,WeatherDisplay:10.37,2013-09-19 11:03:00,
2013-09-19 06:08:00,75.3,73.8,29.87,NE,53,1.1,1.1,95,0.00,CLR,,0.00,WeatherDisplay:10.37,2013-09-19 11:08:00,
2013-09-19 06:13:00,75.3,73.8,29.87,ENE,63,1.1,1.1,95,0.00,CLR,,0.00,WeatherDisplay:10.37,2013-09-19 11:13:00,
2013-09-19 06:18:00,75.3,73.8,29.87,ENE,70,1.1,0.0,95,0.00,CLR,,0.00,WeatherDisplay:10.37,2013-09-19 11:18:00,
2013-09-19 06:23:00,75.3,73.8,29.87,ENE,69,0.0,0.0,95,0.00,CLR,,0.00,WeatherDisplay:10.37,2013-09-19 11:23:00,
2013-09-19 06:28:00,75.3,73.8,29.87,East,92,0.0,0.0,95,0.00,CLR,,0.00,WeatherDisplay:10.37,2013-09-19 11:28:00,
2013-09-19 06:33:00,75.3,73.8,29.88,East,80,0.0,0.0,95,0.00,CLR,,0.00,WeatherDisplay:10.37,2013-09-19 11:33:00,
2013-09-19 06:38:00,75.3,73.8,29.87,ENE,58,0.0,0.0,95,0.00,CLR,,0.00,WeatherDisplay:10.37,2013-09-19 11:38:00,
2013-09-19 06:43:00,75.3,73.8,29.87,ENE,72,0.0,0.0,95,0.00,CLR,,0.00,WeatherDisplay:10.37,2013-09-19 11:43:00,
2013-09-19 06:48:00,75.2,73.7,29.88,ENE,75,0.0,0.0,95,0.00,CLR,,0.00,WeatherDisplay:10.37,2013-09-19 11:48:00,
2013-09-19 06:53:00,75.2,73.7,29.88,ENE,71,0.0,0.0,95,0.00,CLR,,0.00,WeatherDisplay:10.37,2013-09-19 11:53:00,
2013-09-19 06:58:00,75.2,73.7,29.88,ENE,70,0.0,0.0,95,0.00,CLR,,0.00,WeatherDisplay:10.37,2013-09-19 11:58:00,
2013-09-19 07:03:00,75.2,73.7,29.88,ENE,68,0.0,0.0,95,0.00,CLR,,0.00,WeatherDisplay:10.37,2013-09-19 12:03:00,
2013-09-19 07:08:00,75.2,73.7,29.88,East,85,0.0,0.0,95,0.00,CLR,,0.00,WeatherDisplay:10.37,2013-09-19 12:08:00,
2013-09-19 07:13:00,75.1,73.6,29.88,East,79,1.1,1.1,95,0.00,CLR,,0.00,WeatherDisplay:10.37,2013-09-19 12:13:00,
2013-09-19 07:18:00,75.1,73.6,29.88,ENE,70,1.1,1.1,95,0.00,CLR,,0.00,WeatherDisplay:10.37,2013-09-19 12:18:00,
2013-09-19 07:23:00,75.1,73.6,29.88,ENE,58,3.5,3.5,95,0.00,CLR,,0.00,WeatherDisplay:10.37,2013-09-19 12:23:00,
2013-09-19 07:28:00,75.1,73.6,29.89,ENE,65,1.1,0.0,95,0.00,CLR,,0.00,WeatherDisplay:10.37,2013-09-19 12:28:00,
2013-09-19 07:33:00,75.1,73.6,29.89,ENE,58,3.5,3.5,95,0.00,CLR,,0.00,WeatherDisplay:10.37,2013-09-19 12:33:00,
2013-09-19 07:38:00,75.1,73.6,29.88,ESE,105,1.1,1.1,95,0.00,CLR,,0.00,WeatherDisplay:10.37,2013-09-19 12:38:00,
2013-09-19 07:43:00,75.2,73.7,29.89,ENE,74,2.3,2.3,95,0.00,CLR,,0.00,WeatherDisplay:10.37,2013-09-19 12:43:00,
2013-09-19 07:48:00,75.2,73.7,29.89,ENE,58,1.1,1.1,95,0.00,CLR,,0.00,WeatherDisplay:10.37,2013-09-19 12:48:00,
2013-09-19 07:53:00,75.3,73.8,29.89,ENE,67,1.1,1.1,95,0.00,CLR,,0.00,WeatherDisplay:10.37,2013-09-19 12:53:00,
2013-09-19 07:58:00,75.3,73.8,29.89,ENE,67,3.5,3.5,95,0.00,CLR,,0.00,WeatherDisplay:10.37,2013-09-19 12:58:00,
2013-09-19 08:03:00,75.4,73.9,29.89,ENE,67,1.1,1.1,95,0.00,CLR,,0.00,WeatherDisplay:10.37,2013-09-19 13:03:00,
2013-09-19 08:08:00,75.4,73.9,29.89,ENE,70,3.5,3.5,95,0.00,CLR,,0.00,WeatherDisplay:10.37,2013-09-19 13:08:00,
2013-09-19 08:13:00,75.5,74.0,29.89,ENE,67,3.5,3.5,95,0.00,CLR,,0.00,WeatherDisplay:10.37,2013-09-19 13:13:00,
2013-09-19 08:18:00,75.5,74.0,29.89,ENE,76,2.3,3.4,95,0.00,CLR,,0.00,WeatherDisplay:10.37,2013-09-19 13:18:00,
2013-09-19 08:23:00,75.5,74.0,29.90,East,79,2.3,2.3,95,0.00,CLR,,0.00,WeatherDisplay:10.37,2013-09-19 13:23:00,
2013-09-19 08:28:00,75.6,74.1,29.90,East,79,3.5,3.5,95,0.00,CLR,,0.00,WeatherDisplay:10.37,2013-09-19 13:28:00,
2013-09-19 08:33:00,75.7,74.2,29.90,ENE,78,4.6,4.6,95,0.00,CLR,,0.00,WeatherDisplay:10.37,2013-09-19 13:33:00,
2013-09-19 08:38:00,75.8,74.3,29.90,ESE,106,3.5,3.5,95,0.00,CLR,,0.00,WeatherDisplay:10.37,2013-09-19 13:38:00,
2013-09-19 08:43:00,76.0,74.5,29.90,ENE,77,4.6,4.6,95,0.00,CLR,,0.00,WeatherDisplay:10.37,2013-09-19 13:43:00,
2013-09-19 08:48:00,76.1,74.2,29.90,ENE,78,8.1,8.1,94,0.00,CLR,,0.00,WeatherDisplay:10.37,2013-09-19 13:48:00,
2013-09-19 08:53:00,76.2,74.3,29.90,East,85,3.5,3.5,94,0.00,CLR,,0.00,WeatherDisplay:10.37,2013-09-19 13:53:00,
2013-09-19 08:58:00,76.4,74.5,29.90,East,96,1.1,1.1,94,0.00,CLR,,0.00,WeatherDisplay:10.37,2013-09-19 13:58:00,
2013-09-19 09:03:00,76.6,74.7,29.90,NE,48,4.6,4.6,94,0.00,CLR,,0.00,WeatherDisplay:10.37,2013-09-19 14:03:00,
2013-09-19 09:08:00,76.7,74.8,29.90,NE,56,3.5,3.5,94,0.00,CLR,,0.00,WeatherDisplay:10.37,2013-09-19 14:08:00,
2013-09-19 09:13:00,76.8,74.9,29.90,ENE,63,3.5,3.5,94,0.00,CLR,,0.00,WeatherDisplay:10.37,2013-09-19 14:13:00,
2013-09-19 09:18:00,77.0,75.1,29.90,ESE,111,3.5,3.5,94,0.00,CLR,,0.00,WeatherDisplay:10.37,2013-09-19 14:18:00,
2013-09-19 09:23:00,77.1,75.2,29.91,East,87,3.5,3.6,94,0.00,CLR,,0.00,WeatherDisplay:10.37,2013-09-19 14:23:00,
2013-09-19 09:28:00,77.2,75.3,29.91,East,79,5.8,5.8,94,0.00,CLR,,0.00,WeatherDisplay:10.37,2013-09-19 14:28:00,
2013-09-19 09:33:00,77.2,75.0,29.90,East,86,8.1,8.1,93,0.00,CLR,,0.00,WeatherDisplay:10.37,2013-09-19 14:33:00,
2013-09-19 09:38:00,77.3,75.1,29.90,East,97,4.6,4.6,93,0.00,CLR,,0.00,WeatherDisplay:10.37,2013-09-19 14:38:00,
2013-09-19 09:43:00,77.2,75.0,29.91,East,85,8.1,8.1,93,0.00,CLR,,0.00,WeatherDisplay:10.37,2013-09-19 14:43:00,
2013-09-19 09:48:00,77.4,75.2,29.91,ENE,74,4.6,4.6,93,0.00,CLR,,0.00,WeatherDisplay:10.37,2013-09-19 14:48:00,
2013-09-19 09:53:00,77.6,75.4,29.91,East,83,9.2,9.2,93,0.00,CLR,,0.00,WeatherDisplay:10.37,2013-09-19 14:53:00,
2013-09-19 09:58:00,77.7,75.5,29.91,East,82,8.1,8.1,93,0.00,CLR,,0.00,WeatherDisplay:10.37,2013-09-19 14:58:00,
2013-09-19 10:03:00,77.7,75.5,29.91,East,86,10.4,10.4,93,0.00,CLR,,0.00,WeatherDisplay:10.37,2013-09-19 15:03:00,
2013-09-19 10:08:00,78.0,75.8,29.91,East,79,8.1,8.1,93,0.00,CLR,,0.00,WeatherDisplay:10.37,2013-09-19 15:08:00,
2013-09-19 10:13:00,78.3,76.1,29.91,ENE,74,8.1,8.1,93,0.00,CLR,,0.00,WeatherDisplay:10.37,2013-09-19 15:13:00,
2013-09-19 10:18:00,78.6,76.1,29.91,ESE,102,9.2,9.2,92,0.00,CLR,,0.00,WeatherDisplay:10.37,2013-09-19 15:18:00,
2013-09-19 10:23:00,78.7,76.2,29.91,East,88,5.8,5.8,92,0.00,CLR,,0.00,WeatherDisplay:10.37,2013-09-19 15:23:00,
2013-09-19 10:28:00,79.1,76.2,29.91,SE,143,11.5,11.5,91,0.00,CLR,,0.00,WeatherDisplay:10.37,2013-09-19 15:28:00,
2013-09-19 10:33:00,79.2,76.3,29.91,East,89,5.8,5.8,91,0.00,CLR,,0.00,WeatherDisplay:10.37,2013-09-19 15:33:00,
2013-09-19 10:38:00,79.4,76.5,29.91,East,88,8.1,8.1,91,0.00,CLR,,0.00,WeatherDisplay:10.37,2013-09-19 15:38:00,
2013-09-19 10:43:00,79.6,76.4,29.91,East,81,9.2,9.2,90,0.00,CLR,,0.00,WeatherDisplay:10.37,2013-09-19 15:43:00,
2013-09-19 10:48:00,79.9,76.7,29.91,ESE,111,9.2,9.2,90,0.00,CLR,,0.00,WeatherDisplay:10.37,2013-09-19 15:48:00,
2013-09-19 10:53:00,80.2,77.0,29.91,East,99,6.9,6.9,90,0.00,CLR,,0.00,WeatherDisplay:10.37,2013-09-19 15:53:00,
2013-09-19 10:58:00,80.4,76.5,29.91,East,86,5.8,5.8,88,0.00,CLR,,0.00,WeatherDisplay:10.37,2013-09-19 15:58:00,
2013-09-19 11:03:00,80.6,76.4,29.91,East,98,8.1,8.1,87,0.00,CLR,,0.00,WeatherDisplay:10.37,2013-09-19 16:03:00,
2013-09-19 11:08:00,80.8,76.6,29.91,East,85,8.1,8.1,87,0.00,CLR,,0.00,WeatherDisplay:10.37,2013-09-19 16:08:00,
2013-09-19 11:13:00,81.0,76.1,29.91,East,79,10.4,10.4,85,0.00,CLR,,0.00,WeatherDisplay:10.37,2013-09-19 16:13:00,
2013-09-19 11:18:00,81.1,76.5,29.91,NE,50,9.2,9.2,86,0.00,CLR,,0.00,WeatherDisplay:10.37,2013-09-19 16:18:00,
2013-09-19 11:23:00,81.4,76.1,29.91,ESE,102,11.5,11.5,84,0.00,CLR,,0.00,WeatherDisplay:10.37,2013-09-19 16:23:00,
2013-09-19 11:28:00,82.0,77.0,29.91,SE,131,6.0,6.0,85,0.00,CLR,,0.00,WeatherDisplay:10.37,2013-09-19 16:28:00,
2013-09-19 11:33:00,82.5,76.8,29.91,SSE,160,8.1,8.1,83,0.00,CLR,,0.00,WeatherDisplay:10.37,2013-09-19 16:33:00,
2013-09-19 11:38:00,82.3,76.6,29.91,East,85,8.1,8.1,83,0.00,CLR,,0.00,WeatherDisplay:10.37,2013-09-19 16:38:00,
2013-09-19 11:43:00,82.4,76.7,29.91,East,79,6.9,6.9,83,0.00,CLR,,0.00,WeatherDisplay:10.37,2013-09-19 16:43:00,
2013-09-19 11:48:00,82.6,76.5,29.91,East,86,4.6,6.5,82,0.00,CLR,,0.00,WeatherDisplay:10.37,2013-09-19 16:48:00,
2013-09-19 11:53:00,82.7,76.3,29.90,East,101,5.0,5.0,81,0.00,CLR,,0.00,WeatherDisplay:10.37,2013-09-19 16:53:00,
2013-09-19 11:58:00,83.0,76.2,29.90,East,98,5.0,5.0,80,0.00,CLR,,0.00,WeatherDisplay:10.37,2013-09-19 16:58:00,
2013-09-19 12:03:00,83.3,75.3,29.90,ENE,77,8.1,8.1,77,0.00,CLR,,0.00,WeatherDisplay:10.37,2013-09-19 17:03:00,
2013-09-19 12:08:00,83.6,75.6,29.90,ESE,105,5.8,5.8,77,0.00,CLR,,0.00,WeatherDisplay:10.37,2013-09-19 17:08:00,
2013-09-19 12:13:00,83.7,75.7,29.90,ESE,119,4.0,4.0,77,0.00,CLR,,0.00,WeatherDisplay:10.37,2013-09-19 17:13:00,
2013-09-19 12:18:00,83.9,75.9,29.90,SE,126,5.8,5.8,77,0.00,CLR,,0.00,WeatherDisplay:10.37,2013-09-19 17:18:00,
2013-09-19 12:23:00,84.5,76.1,29.89,SSE,153,5.8,5.8,76,0.00,CLR,,0.00,WeatherDisplay:10.37,2013-09-19 17:23:00,
2013-09-19 12:28:00,84.9,76.1,29.89,NE,55,5.8,5.8,75,0.00,CLR,,0.00,WeatherDisplay:10.37,2013-09-19 17:28:00,
2013-09-19 12:33:00,85.0,76.2,29.89,ESE,114,3.5,3.6,75,0.00,CLR,,0.00,WeatherDisplay:10.37,2013-09-19 17:33:00,
2013-09-19 12:39:00,85.5,75.9,29.89,SE,127,4.6,4.6,73,0.00,CLR,,0.00,WeatherDisplay:10.37,2013-09-19 17:39:00,
2013-09-19 12:44:00,86.5,74.7,29.88,SSE,149,11.5,11.5,68,0.00,CLR,,0.00,WeatherDisplay:10.37,2013-09-19 17:44:00,
2013-09-19 12:49:00,87.0,74.7,29.88,SE,143,5.8,5.8,67,0.00,CLR,,0.00,WeatherDisplay:10.37,2013-09-19 17:49:00,
2013-09-19 12:54:00,87.5,75.6,29.88,NE,56,9.2,9.2,68,0.00,CLR,,0.00,WeatherDisplay:10.37,2013-09-19 17:54:00,
2013-09-19 12:59:00,87.9,75.6,29.87,SE,127,8.1,8.1,67,0.00,CLR,,0.00,WeatherDisplay:10.37,2013-09-19 17:59:00,
2013-09-19 13:04:00,88.0,74.8,29.87,ESE,123,9.2,9.2,65,0.00,CLR,,0.00,WeatherDisplay:10.37,2013-09-19 18:04:00,
2013-09-19 13:09:00,87.4,74.6,29.87,ESE,105,12.7,12.7,66,0.00,CLR,,0.00,WeatherDisplay:10.37,2013-09-19 18:09:00,
2013-09-19 13:14:00,87.1,74.8,29.86,East,98,10.4,10.4,67,0.00,CLR,,0.00,WeatherDisplay:10.37,2013-09-19 18:14:00,
2013-09-19 13:19:00,87.1,74.8,29.86,ESE,110,11.5,11.5,67,0.00,CLR,,0.00,WeatherDisplay:10.37,2013-09-19 18:19:00,
2013-09-19 13:24:00,87.0,74.7,29.86,East,99,3.5,3.5,67,0.00,CLR,,0.00,WeatherDisplay:10.37,2013-09-19 18:24:00,
2013-09-19 13:29:00,87.6,75.3,29.86,ENE,67,6.9,6.9,67,0.00,CLR,,0.00,WeatherDisplay:10.37,2013-09-19 18:29:00,
2013-09-19 13:34:00,87.6,74.8,29.85,SE,136,8.1,8.1,66,0.00,CLR,,0.00,WeatherDisplay:10.37,2013-09-19 18:34:00,
2013-09-19 13:39:00,87.9,74.7,29.85,ENE,77,15.0,15.0,65,0.00,CLR,,0.00,WeatherDisplay:10.37,2013-09-19 18:39:00,
2013-09-19 13:44:00,87.6,74.8,29.85,NE,41,3.5,3.5,66,0.00,CLR,,0.00,WeatherDisplay:10.37,2013-09-19 18:44:00,
2013-09-19 13:49:00,87.3,74.5,29.85,East,92,9.2,9.2,66,0.00,CLR,,0.00,WeatherDisplay:10.37,2013-09-19 18:49:00,
2013-09-19 13:54:00,87.5,75.2,29.85,SE,132,5.8,5.8,67,0.00,CLR,,0.00,WeatherDisplay:10.37,2013-09-19 18:54:00,
2013-09-19 13:59:00,87.7,74.5,29.84,SSE,159,4.6,4.6,65,0.00,CLR,,0.00,WeatherDisplay:10.37,2013-09-19 18:59:00,
2013-09-19 14:04:00,87.7,74.9,29.84,ESE,114,5.8,5.8,66,0.00,CLR,,0.00,WeatherDisplay:10.37,2013-09-19 19:04:00,
2013-09-19 14:09:00,88.2,74.5,29.84,ENE,74,5.8,5.8,64,0.00,CLR,,0.00,WeatherDisplay:10.37,2013-09-19 19:09:00,
2013-09-19 14:14:00,88.2,74.5,29.84,East,82,11.5,11.5,64,0.00,CLR,,0.00,WeatherDisplay:10.37,2013-09-19 19:14:00,
2013-09-19 14:19:00,88.2,74.0,29.83,ESE,108,11.5,11.5,63,0.00,CLR,,0.00,WeatherDisplay:10.37,2013-09-19 19:19:00,
2013-09-19 14:24:00,87.8,74.6,29.83,ESE,112,11.5,11.5,65,0.00,CLR,,0.00,WeatherDisplay:10.37,2013-09-19 19:24:00,
2013-09-19 14:29:00,87.8,74.1,29.83,East,85,12.7,12.7,64,0.00,CLR,,0.00,WeatherDisplay:10.37,2013-09-19 19:29:00,
2013-09-19 14:34:00,88.1,74.4,29.83,ENE,75,8.1,8.1,64,0.00,CLR,,0.00,WeatherDisplay:10.37,2013-09-19 19:34:00,
2013-09-19 14:39:00,89.3,74.1,29.83,SE,126,11.0,11.0,61,0.00,CLR,,0.00,WeatherDisplay:10.37,2013-09-19 19:39:00,
2013-09-19 14:44:00,88.7,74.0,29.82,East,90,9.2,9.2,62,0.00,CLR,,0.00,WeatherDisplay:10.37,2013-09-19 19:44:00,
2013-09-19 14:49:00,88.2,74.0,29.82,ESE,117,9.2,9.2,63,0.00,CLR,,0.00,WeatherDisplay:10.37,2013-09-19 19:49:00,
2013-09-19 14:54:00,87.9,73.7,29.82,ESE,120,10.4,10.4,63,0.00,CLR,,0.00,WeatherDisplay:10.37,2013-09-19 19:54:00,
2013-09-19 14:59:00,88.1,73.9,29.82,ESE,106,8.1,8.1,63,0.00,CLR,,0.00,WeatherDisplay:10.37,2013-09-19 19:59:00,
2013-09-19 15:04:00,88.5,77.0,29.82,SW,214,11.5,11.5,69,0.00,CLR,,0.00,WeatherDisplay:10.37,2013-09-19 20:04:00,
2013-09-19 15:09:00,87.3,75.4,29.81,SW,217,11.5,11.5,68,0.00,CLR,,0.00,WeatherDisplay:10.37,2013-09-19 20:09:00,
2013-09-19 15:14:00,88.4,75.1,29.81,NW,320,3.5,3.5,65,0.00,CLR,,0.00,WeatherDisplay:10.37,2013-09-19 20:14:00,
2013-09-19 15:19:00,88.3,75.0,29.81,SSE,152,3.5,3.5,65,0.00,CLR,,0.00,WeatherDisplay:10.37,2013-09-19 20:19:00,
2013-09-19 15:24:00,89.5,76.2,29.80,South,187,6.0,6.0,65,0.00,CLR,,0.00,WeatherDisplay:10.37,2013-09-19 20:24:00,
2013-09-19 15:29:00,89.3,75.5,29.80,West,280,4.6,4.6,64,0.00,CLR,,0.00,WeatherDisplay:10.37,2013-09-19 20:29:00,
2013-09-19 15:34:00,89.2,75.4,29.80,WSW,242,6.9,6.9,64,0.00,CLR,,0.00,WeatherDisplay:10.37,2013-09-19 20:34:00,
2013-09-19 15:39:00,89.8,75.5,29.80,SSE,162,3.5,3.5,63,0.00,CLR,,0.00,WeatherDisplay:10.37,2013-09-19 20:39:00,
2013-09-19 15:44:00,89.7,75.4,29.80,SW,217,1.1,0.0,63,0.00,CLR,,0.00,WeatherDisplay:10.37,2013-09-19 20:44:00,
2013-09-19 15:49:00,89.6,75.8,29.79,ENE,58,1.1,1.1,64,0.00,CLR,,0.00,WeatherDisplay:10.37,2013-09-19 20:49:00,
2013-09-19 15:54:00,89.7,75.9,29.79,South,174,4.0,4.0,64,0.00,CLR,,0.00,WeatherDisplay:10.37,2013-09-19 20:54:00,
2013-09-19 15:59:00,90.0,75.7,29.79,West,271,3.5,3.5,63,0.00,CLR,,0.00,WeatherDisplay:10.37,2013-09-19 20:59:00,
2013-09-19 16:04:00,89.7,76.4,29.79,WSW,249,5.8,5.8,65,0.00,CLR,,0.00,WeatherDisplay:10.37,2013-09-19 21:04:00,
2013-09-19 16:09:00,88.8,77.3,29.79,NW,318,4.6,4.6,69,0.00,CLR,,0.00,WeatherDisplay:10.37,2013-09-19 21:09:00,
2013-09-19 16:14:00,88.9,76.5,29.78,SW,218,9.2,9.2,67,0.00,CLR,,0.00,WeatherDisplay:10.37,2013-09-19 21:14:00,
2013-09-19 16:19:00,89.0,76.2,29.78,NNW,329,2.3,2.3,66,0.00,CLR,,0.00,WeatherDisplay:10.37,2013-09-19 21:19:00,
2013-09-19 16:24:00,88.8,76.4,29.78,WNW,285,1.1,0.0,67,0.00,CLR,,0.00,WeatherDisplay:10.37,2013-09-19 21:24:00,
2013-09-19 16:29:00,88.6,77.1,29.78,NW,311,3.5,3.5,69,0.00,CLR,,0.00,WeatherDisplay:10.37,2013-09-19 21:29:00,
2013-09-19 16:34:00,87.9,77.3,29.78,North,357,3.5,3.5,71,0.01,RA,,0.02,WeatherDisplay:10.37,2013-09-19 21:34:00,
2013-09-19 16:39:00,85.8,77.4,29.78,North,349,5.8,5.8,76,0.07,RA,,0.07,WeatherDisplay:10.37,2013-09-19 21:39:00,
2013-09-19 16:44:00,84.4,77.2,29.78,North,349,3.5,3.5,79,0.07,RA,,0.07,WeatherDisplay:10.37,2013-09-19 21:44:00,
2013-09-19 16:49:00,83.4,77.0,29.78,NW,317,3.5,3.5,81,0.07,CLR,,0.07,WeatherDisplay:10.37,2013-09-19 21:49:00,
2013-09-19 16:54:00,83.8,76.2,29.78,NW,309,2.3,2.3,78,0.07,CLR,,0.07,WeatherDisplay:10.37,2013-09-19 21:54:00,
2013-09-19 16:59:00,84.1,77.3,29.78,NW,323,3.5,3.5,80,0.07,CLR,,0.07,WeatherDisplay:10.37,2013-09-19 21:59:00,
2013-09-19 17:04:00,84.0,78.6,29.77,NE,36,1.1,1.1,84,0.07,CLR,,0.07,WeatherDisplay:10.37,2013-09-19 22:04:00,
2013-09-19 17:09:00,84.6,78.1,29.77,North,4,4.6,4.6,81,0.07,CLR,,0.07,WeatherDisplay:10.37,2013-09-19 22:09:00,
2013-09-19 17:14:00,84.9,79.2,29.77,West,276,2.3,2.3,83,0.07,CLR,,0.07,WeatherDisplay:10.37,2013-09-19 22:14:00,
2013-09-19 17:19:00,85.9,79.0,29.77,West,267,1.1,0.0,80,0.07,CLR,,0.07,WeatherDisplay:10.37,2013-09-19 22:19:00,
2013-09-19 17:24:00,86.3,78.6,29.77,NW,326,2.0,2.4,78,0.07,CLR,,0.07,WeatherDisplay:10.37,2013-09-19 22:24:00,
2013-09-19 17:29:00,85.7,77.3,29.78,SE,146,1.1,1.1,76,0.07,CLR,,0.07,WeatherDisplay:10.37,2013-09-19 22:29:00,
2013-09-19 17:34:00,83.6,75.6,29.80,SSE,166,18.4,18.4,77,0.08,RA,,0.12,WeatherDisplay:10.37,2013-09-19 22:34:00,
2013-09-19 17:39:00,80.7,74.7,29.80,WSW,252,8.1,8.1,82,0.12,RA,,0.21,WeatherDisplay:10.37,2013-09-19 22:39:00,
2013-09-19 17:44:00,79.4,74.8,29.79,NE,47,1.1,1.1,86,0.15,RA,,0.22,WeatherDisplay:10.37,2013-09-19 22:44:00,
2013-09-19 17:49:00,78.8,74.9,29.79,NW,307,1.1,1.1,88,0.16,RA,,0.23,WeatherDisplay:10.37,2013-09-19 22:49:00,
2013-09-19 17:54:00,78.7,75.8,29.79,NW,305,0.0,0.0,91,0.16,RA,,0.23,WeatherDisplay:10.37,2013-09-19 22:54:00,
2013-09-19 18:00:00,78.8,75.6,29.79,North,359,0.0,0.0,90,0.16,CLR,,0.23,WeatherDisplay:10.37,2013-09-19 23:00:00,
2013-09-19 18:05:00,79.3,76.4,29.78,WNW,302,1.1,1.1,91,0.16,CLR,,0.23,WeatherDisplay:10.37,2013-09-19 23:05:00,
2013-09-19 18:10:00,80.1,77.2,29.78,NW,326,0.0,0.0,91,0.16,CLR,,0.23,WeatherDisplay:10.37,2013-09-19 23:10:00,
2013-09-19 18:15:00,80.3,76.8,29.78,North,1,1.1,0.0,89,0.16,CLR,,0.23,WeatherDisplay:10.37,2013-09-19 23:15:00,
2013-09-19 18:20:00,80.5,76.6,29.79,North,6,3.5,3.5,88,0.16,CLR,,0.23,WeatherDisplay:10.37,2013-09-19 23:20:00,
2013-09-19 18:25:00,80.6,76.7,29.79,NNW,340,3.5,3.5,88,0.16,CLR,,0.23,WeatherDisplay:10.37,2013-09-19 23:25:00,
2013-09-19 18:30:00,80.6,76.7,29.79,NW,318,2.3,2.3,88,0.16,CLR,,0.23,WeatherDisplay:10.37,2013-09-19 23:30:00,
2013-09-19 18:35:00,80.7,76.8,29.78,NW,316,3.5,3.5,88,0.10,CLR,,0.23,WeatherDisplay:10.37,2013-09-19 23:35:00,
2013-09-19 18:40:00,80.6,76.7,29.79,NW,326,0.0,0.0,88,0.02,CLR,,0.23,WeatherDisplay:10.37,2013-09-19 23:40:00,
2013-09-19 18:45:00,80.8,76.6,29.79,North,358,0.0,0.0,87,0.01,CLR,,0.23,WeatherDisplay:10.37,2013-09-19 23:45:00,
2013-09-19 18:50:00,81.2,77.6,29.79,East,91,2.3,2.3,89,0.00,CLR,,0.23,WeatherDisplay:10.37,2013-09-19 23:50:00,
2013-09-19 18:55:00,81.3,77.4,29.80,East,98,3.5,3.6,88,0.00,CLR,,0.23,WeatherDisplay:10.37,2013-09-19 23:55:00,
2013-09-19 19:00:00,81.6,77.0,29.80,ESE,112,11.5,11.5,86,0.00,CLR,,0.23,WeatherDisplay:10.37,2013-09-20 00:00:00,
2013-09-19 19:05:00,81.3,76.7,29.80,ENE,78,9.2,9.2,86,0.00,CLR,,0.23,WeatherDisplay:10.37,2013-09-20 00:05:00,
2013-09-19 19:10:00,80.8,75.9,29.80,East,81,5.8,5.8,85,0.00,CLR,,0.23,WeatherDisplay:10.37,2013-09-20 00:10:00,
2013-09-19 19:15:00,80.3,75.7,29.80,ESE,111,5.8,5.8,86,0.00,CLR,,0.23,WeatherDisplay:10.37,2013-09-20 00:15:00,
2013-09-19 19:20:00,80.1,75.9,29.80,ESE,120,2.3,0.0,87,0.00,CLR,,0.23,WeatherDisplay:10.37,2013-09-20 00:20:00,
2013-09-19 19:25:00,79.9,76.0,29.80,SSE,152,0.0,0.0,88,0.00,CLR,,0.23,WeatherDisplay:10.37,2013-09-20 00:25:00,
2013-09-19 19:30:00,79.8,76.3,29.79,SSE,153,0.0,0.0,89,0.00,CLR,,0.23,WeatherDisplay:10.37,2013-09-20 00:30:00,
2013-09-19 19:35:00,79.6,76.1,29.79,East,91,0.0,0.0,89,0.00,CLR,,0.23,WeatherDisplay:10.37,2013-09-20 00:35:00,
2013-09-19 19:40:00,79.6,76.1,29.79,East,96,2.3,2.3,89,0.00,CLR,,0.23,WeatherDisplay:10.37,2013-09-20 00:40:00,
2013-09-19 19:45:00,79.5,76.3,29.80,ESE,117,2.3,2.3,90,0.00,CLR,,0.23,WeatherDisplay:10.37,2013-09-20 00:45:00,
2013-09-19 19:50:00,79.5,76.3,29.80,ESE,103,3.5,3.5,90,0.00,CLR,,0.23,WeatherDisplay:10.37,2013-09-20 00:50:00,
2013-09-19 19:55:00,79.6,76.4,29.81,East,101,4.6,4.6,90,0.00,CLR,,0.23,WeatherDisplay:10.37,2013-09-20 00:55:00,
2013-09-19 20:00:00,79.6,76.1,29.81,ESE,121,5.8,5.8,89,0.00,CLR,,0.23,WeatherDisplay:10.37,2013-09-20 01:00:00,
2013-09-19 20:05:00,79.7,76.2,29.81,East,96,6.9,6.9,89,0.00,CLR,,0.23,WeatherDisplay:10.37,2013-09-20 01:05:00,
2013-09-19 20:10:00,79.8,75.9,29.81,ESE,112,4.6,5.0,88,0.00,CLR,,0.23,WeatherDisplay:10.37,2013-09-20 01:10:00,
2013-09-19 20:15:00,79.8,75.9,29.81,ESE,105,4.6,4.6,88,0.00,CLR,,0.23,WeatherDisplay:10.37,2013-09-20 01:15:00,
2013-09-19 20:20:00,79.7,75.8,29.81,East,100,3.5,3.5,88,0.00,CLR,,0.23,WeatherDisplay:10.37,2013-09-20 01:20:00,
2013-09-19 20:25:00,79.7,75.8,29.81,East,99,3.5,3.5,88,0.00,CLR,,0.23,WeatherDisplay:10.37,2013-09-20 01:25:00,
2013-09-19 20:30:00,79.6,75.7,29.81,East,101,4.6,4.6,88,0.00,CLR,,0.23,WeatherDisplay:10.37,2013-09-20 01:30:00,
2013-09-19 20:35:00,79.5,75.6,29.81,SE,125,2.3,2.3,88,0.00,CLR,,0.23,WeatherDisplay:10.37,2013-09-20 01:35:00,
2013-09-19 20:40:00,79.4,75.5,29.82,ESE,103,3.5,3.5,88,0.00,CLR,,0.23,WeatherDisplay:10.37,2013-09-20 01:40:00,
2013-09-19 20:45:00,79.3,75.8,29.82,ENE,67,2.3,2.3,89,0.00,CLR,,0.23,WeatherDisplay:10.37,2013-09-20 01:45:00,
2013-09-19 20:51:00,79.2,75.7,29.82,East,86,3.5,3.5,89,0.00,CLR,,0.23,WeatherDisplay:10.37,2013-09-20 01:51:00,
2013-09-19 20:56:00,79.2,75.7,29.83,ESE,104,3.5,3.5,89,0.00,CLR,,0.23,WeatherDisplay:10.37,2013-09-20 01:56:00,
2013-09-19 21:01:00,79.2,75.7,29.83,East,79,3.5,3.5,89,0.00,CLR,,0.23,WeatherDisplay:10.37,2013-09-20 02:01:00,
2013-09-19 21:06:00,79.2,75.7,29.83,ESE,118,3.5,3.5,89,0.00,CLR,,0.23,WeatherDisplay:10.37,2013-09-20 02:06:00,
2013-09-19 21:11:00,79.1,75.6,29.83,SSE,150,3.5,3.5,89,0.00,CLR,,0.23,WeatherDisplay:10.37,2013-09-20 02:11:00,
2013-09-19 21:16:00,79.0,75.5,29.83,SE,131,3.5,3.5,89,0.00,CLR,,0.23,WeatherDisplay:10.37,2013-09-20 02:16:00,
2013-09-19 21:21:00,79.0,75.8,29.83,SE,125,3.5,3.5,90,0.00,CLR,,0.23,WeatherDisplay:10.37,2013-09-20 02:21:00,
2013-09-19 21:26:00,79.1,75.9,29.84,East,101,4.6,4.6,90,0.00,CLR,,0.23,WeatherDisplay:10.37,2013-09-20 02:26:00,
2013-09-19 21:31:00,79.1,75.9,29.84,ENE,63,3.5,3.5,90,0.00,CLR,,0.23,WeatherDisplay:10.37,2013-09-20 02:31:00,
2013-09-19 21:36:00,78.6,75.8,29.84,East,84,4.6,4.6,91,0.00,CLR,,0.23,WeatherDisplay:10.37,2013-09-20 02:36:00,
2013-09-19 21:41:00,78.3,75.5,29.84,ESE,108,3.0,3.0,91,0.00,CLR,,0.23,WeatherDisplay:10.37,2013-09-20 02:41:00,
2013-09-19 21:46:00,78.1,75.6,29.84,East,94,3.5,3.5,92,0.00,CLR,,0.23,WeatherDisplay:10.37,2013-09-20 02:46:00,
2013-09-19 21:51:00,78.1,75.6,29.84,ESE,105,3.5,3.5,92,0.00,CLR,,0.23,WeatherDisplay:10.37,2013-09-20 02:51:00,
2013-09-19 21:56:00,78.2,75.4,29.84,East,98,6.9,6.9,91,0.00,CLR,,0.23,WeatherDisplay:10.37,2013-09-20 02:56:00,
2013-09-19 22:01:00,78.3,75.5,29.84,East,96,3.5,3.5,91,0.00,CLR,,0.23,WeatherDisplay:10.37,2013-09-20 03:01:00,
2013-09-19 22:06:00,78.3,75.5,29.84,East,100,6.9,6.9,91,0.00,CLR,,0.23,WeatherDisplay:10.37,2013-09-20 03:06:00,
2013-09-19 22:11:00,78.3,75.5,29.84,ESE,118,6.9,6.9,91,0.00,CLR,,0.23,WeatherDisplay:10.37,2013-09-20 03:11:00,
2013-09-19 22:16:00,78.3,75.5,29.84,East,101,6.9,6.9,91,0.00,CLR,,0.23,WeatherDisplay:10.37,2013-09-20 03:16:00,
2013-09-19 22:21:00,78.3,75.5,29.84,ESE,121,5.8,5.8,91,0.00,CLR,,0.23,WeatherDisplay:10.37,2013-09-20 03:21:00,
2013-09-19 22:26:00,78.2,75.4,29.84,ESE,111,5.8,5.8,91,0.00,CLR,,0.23,WeatherDisplay:10.37,2013-09-20 03:26:00,
2013-09-19 22:31:00,78.1,75.6,29.84,ESE,103,4.6,4.6,92,0.00,CLR,,0.23,WeatherDisplay:10.37,2013-09-20 03:31:00,
2013-09-19 22:36:00,78.0,75.5,29.84,East,98,3.5,3.5,92,0.00,CLR,,0.23,WeatherDisplay:10.37,2013-09-20 03:36:00,
2013-09-19 22:41:00,77.9,75.4,29.84,East,79,4.6,4.6,92,0.00,CLR,,0.23,WeatherDisplay:10.37,2013-09-20 03:41:00,
2013-09-19 22:46:00,77.8,75.3,29.84,ESE,121,5.8,5.8,92,0.00,CLR,,0.23,WeatherDisplay:10.37,2013-09-20 03:46:00,
2013-09-19 22:51:00,77.7,75.2,29.84,SE,136,2.3,2.3,92,0.00,CLR,,0.23,WeatherDisplay:10.37,2013-09-20 03:51:00,
2013-09-19 22:56:00,77.6,75.1,29.84,ESE,122,3.5,3.5,92,0.00,CLR,,0.23,WeatherDisplay:10.37,2013-09-20 03:56:00,
2013-09-19 23:01:00,77.5,75.0,29.84,ESE,122,3.5,3.5,92,0.00,CLR,,0.23,WeatherDisplay:10.37,2013-09-20 04:01:00,
2013-09-19 23:06:00,77.5,75.3,29.84,ESE,123,3.5,3.5,93,0.00,CLR,,0.23,WeatherDisplay:10.37,2013-09-20 04:06:00,
2013-09-19 23:11:00,77.5,75.3,29.84,ESE,121,3.5,3.5,93,0.00,CLR,,0.23,WeatherDisplay:10.37,2013-09-20 04:11:00,
2013-09-19 23:16:00,77.4,75.2,29.84,ESE,123,3.5,3.5,93,0.00,CLR,,0.23,WeatherDisplay:10.37,2013-09-20 04:16:00,
2013-09-19 23:21:00,77.4,75.2,29.84,ESE,109,6.9,6.9,93,0.00,CLR,,0.23,WeatherDisplay:10.37,2013-09-20 04:21:00,
2013-09-19 23:26:00,77.4,75.2,29.84,SE,131,3.5,3.5,93,0.00,CLR,,0.23,WeatherDisplay:10.37,2013-09-20 04:26:00,
2013-09-19 23:31:00,77.5,75.3,29.84,ESE,122,8.0,8.0,93,0.00,CLR,,0.23,WeatherDisplay:10.37,2013-09-20 04:31:00,
2013-09-19 23:36:00,77.5,75.3,29.84,SE,125,3.5,3.5,93,0.00,CLR,,0.23,WeatherDisplay:10.37,2013-09-20 04:36:00,
2013-09-19 23:41:00,77.7,75.5,29.84,ESE,122,5.8,5.8,93,0.00,CLR,,0.23,WeatherDisplay:10.37,2013-09-20 04:41:00,
2013-09-19 23:46:00,77.8,75.3,29.83,SE,134,3.5,3.5,92,0.00,CLR,,0.23,WeatherDisplay:10.37,2013-09-20 04:46:00,
2013-09-19 23:51:00,77.8,75.3,29.83,ESE,114,8.1,8.1,92,0.00,CLR,,0.23,WeatherDisplay:10.37,2013-09-20 04:51:00,
2013-09-19 23:56:00,77.8,75.3,29.83,ESE,119,3.5,3.5,92,0.00,CLR,,0.23,WeatherDisplay:10.37,2013-09-20 04:56:00,